Starlink 30474

operational
NORAD ID: 57897 Int'l Des: 2023-146 Owner: SPXS Country: US Constellation: starlink
LEOCIRCULAR

Starlink 30474について

説明を読み込み中...

リアルタイム位置

3D地球を読み込み中...

次回通過

高度履歴

Altitude vs Time

uPlot chart will show altitude changes over time

軌道要素

1 57897U 23146G 25303.97525668 .00000412 00000-0 45550-4 0 9993
2 57897 43.0069 298.1981 0001319 269.1635 90.9057 15.02539259117554
Epoch: Oct 30, 2025 • Age: 18 hours

現在のステータス

高度 558.3 km
速度 7.58 km/s
衛星直下点 7.91°N, 7.36°E
打ち上げ日 Sep 20, 2023
運用期間 2.1 years
タイプ internet

技術仕様

分類 Payload
質量 730.00 kg
乾燥質量 700.00 kg
総質量 730.00 kg
長さ 0.30 m
直径 4.10 m
スパン 29.00 m
形状 Box + pan
製造者 SPXS
バスタイプ Starlink V2M
フェーズステータス In Orbit
所有者/国 SPXS/US

大規模コンステレーション

Loading constellations...